Visibility
15.0 15.0 13.7 5.9 11.2 8.4 15.0 15.0 15.0 15.0 15.0 15.0 15.0 15.0 15.0 15.0 15.0 15.0 15.0 15.0 15.0 15.0 15.0 15.0 15.0 15.0 15.0 15.0 15.0 15.0 15.0 15.0 15.0 15.0 15.0 15.0 15.0 15.0
15.0 15.0 15.0 9.0 5.3 5.9 9.1 9.8 9.5 15.0 15.0 15.0 15.0 15.0 15.0 15.0 15.0 15.0 15.0 6.2 6.5 15.0 15.0 15.0 15.0 15.0 15.0 15.0 15.0 15.0 15.0 15.0 15.0 15.0 15.0 15.0 15.0 15.0
15.0 15.0 15.0 12.8 6.2 7.7 8.3 7.9 12.3 14.0 15.0 15.0 15.0 15.0 13.7 6.4 15.0 8.5 12.5 15.0 2.3 10.5 14.3 15.0 15.0 15.0 15.0 15.0 15.0 15.0 15.0 15.0 15.0 15.0 15.0 15.0 15.0 15.0
15.0 15.0 15.0 10.1 5.1 7.9 8.9 10.2 7.3 15.0 15.0 15.0 15.0 15.0 15.0 5.4 9.9 15.0 15.0 15.0 14.9 3.1 8.4 15.0 15.0 15.0 15.0 15.0 15.0 15.0 15.0 15.0 15.0 15.0 15.0 15.0 15.0 15.0
15.0 14.6 13.5 10.7 12.2 7.8 5.7 6.2 10.7 15.0 15.0 15.0 15.0 12.6 13.4 15.0 15.0 12.1 15.0 15.0 15.0 15.0 15.0 15.0 15.0 15.0 15.0 15.0 15.0 14.7 14.6 15.0 15.0 15.0 15.0 15.0 15.0 14.4
15.0 15.0 11.4 9.2 11.6 10.2 4.1 4.2 10.4 15.0 11.6 15.0 15.0 15.0 15.0 15.0 15.0 0.1 0.1 8.6 10.3 14.1 7.0 12.0 15.0 15.0 15.0 15.0 15.0 15.0 15.0 15.0 9.5 7.0 5.8 1.4 7.5 6.9
6.9 11.4 13.5 8.1 3.8 6.1 4.9 4.8 8.4 14.9 8.9 7.2 8.7 7.4 9.9 0.1 1.9 13.0 0.3 0.1 1.2 13.6 0.5 2.4 13.5 11.2 14.4 15.0 14.8 9.2 6.7 7.7 9.1 13.4 14.6 15.0 15.0 15.0
0.7 7.1 12.4 0.2 0.2 0.3 4.2 1.2 5.9 15.0 13.3 11.0 11.2 11.8 14.3 11.0 11.4 8.4 0.1 0.1 0.1 8.0 4.9 0.1 10.2 0.9 7.8 5.8 4.4 15.0 15.0 15.0 15.0 15.0 15.0 15.0 15.0 15.0
15.0 15.0 15.0 14.7 0.9 4.7 0.1 0.2 0.6 0.3 0.1 14.4 12.2 11.6 13.1 10.8 10.8 0.2 0.1 0.2 0.2 0.1 3.9 0.8 1.0 0.6 2.9 2.7 3.4 5.3 14.8 15.0 15.0 15.0 15.0 15.0 15.0 15.0
15.0 15.0 15.0 15.0 7.6 15.0 0.1 0.1 0.1 0.1 0.5 0.3 0.1 0.1 0.1 0.4 5.9 0.5 8.3 1.4 1.3 1.8 3.7 1.1 0.7 0.5 0.9 1.0 1.9 0.2 1.1 15.0 15.0 9.8 10.3 12.5 15.0 15.0
4.7 2.9 15.0 15.0 0.1 6.0 0.1 0.1 0.1 0.1 15.0 15.0 7.7 4.4 5.2 12.6 12.4 14.1 14.1 8.5 0.9 1.0 1.1 1.4 0.7 0.4 0.3 0.1 0.1 0.1 1.0 12.9 14.4 3.3 4.7 8.6 15.0 15.0
0.1 0.2 0.3 0.3 0.0 4.7 0.1 0.1 0.1 0.1 2.5 4.8 2.1 1.7 2.0 1.2 1.1 9.6 15.0 2.3 2.1 2.1 1.2 0.3 0.1 0.1 0.1 0.1 0.1 0.3 1.4 3.1 3.8 7.4 13.0 15.0 15.0 15.0
0.1 0.1 0.1 2.4 2.6 6.7 8.8 2.0 0.4 5.6 1.3 4.2 7.0 7.3 10.6 6.6 2.8 1.7 1.5 1.2 0.5 0.1 0.1 0.1 0.1 0.1 0.1 0.2 2.2 15.0 15.0 15.0 15.0 15.0 15.0 15.0 15.0 15.0
0.1 0.3 4.0 15.0 12.0 1.3 0.9 0.6 0.9 1.0 1.7 2.7 3.1 1.2 1.5 1.9 0.3 0.1 0.1 0.1 0.2 0.2 0.5 1.3 0.6 1.5 1.8 4.1 14.3 15.0 15.0 15.0 15.0 15.0 15.0 15.0 15.0 15.0
5.9 1.0 1.4 2.1 1.1 0.9 0.7 0.6 0.9 1.9 1.0 0.7 0.3 0.1 0.2 0.1 0.6 13.5 13.9 15.0 15.0 15.0 15.0 15.0 15.0 15.0 15.0 15.0 15.0 15.0 15.0 15.0 15.0 15.0 15.0 15.0 15.0 15.0
0.9 0.4 0.6 0.5 1.0 1.3 1.6 1.8 1.7 1.7 1.8 0.2 0.1 0.1 0.2 9.1 15.0 15.0 15.0 15.0 15.0 15.0 15.0 15.0 15.0 15.0 15.0 15.0 15.0 15.0 15.0 15.0 15.0 15.0 15.0 15.0 15.0 15.0
8.8 15.0 5.4 2.8 1.9 2.7 0.6 0.2 0.1 0.3 0.6 0.5 5.1 11.1 15.0 15.0 15.0 15.0 15.0 15.0 15.0 15.0 15.0 15.0 15.0 15.0 15.0 15.0 15.0 15.0 15.0 15.0 15.0 15.0 15.0 15.0 15.0 15.0
15.0 6.6 0.8 4.8 15.0 15.0 15.0 15.0 15.0 15.0 15.0 15.0 15.0 15.0 15.0 15.0 15.0 15.0 15.0 15.0 15.0 15.0 15.0 15.0 15.0 15.0 15.0 15.0 15.0 15.0 15.0 15.0 15.0 15.0 15.0 15.0 15.0 15.0
14.7 12.6 6.6 15.0 15.0 15.0 15.0 15.0 15.0 15.0 15.0 15.0 15.0 15.0 15.0 15.0 15.0 15.0 15.0 15.0 15.0 15.0 15.0 15.0 15.0 15.0 15.0 5.3 15.0 15.0 15.0 15.0 15.0 15.0 15.0 15.0 14.9 15.0
15.0 15.0 15.0 15.0 15.0 15.0 15.0 15.0 15.0 15.0 15.0 15.0 15.0 15.0 15.0 15.0 15.0 15.0 15.0 15.0 15.0 15.0 15.0 15.0 15.0 15.0 15.0 15.0 15.0 15.0 15.0 15.0 15.0 15.0 15.0 15.0 15.0 15.0
15.0 15.0 15.0 15.0 15.0 12.1 14.9 15.0 15.0 15.0 15.0 15.0 15.0 15.0 15.0 15.0 15.0 15.0 15.0 15.0 15.0 15.0 15.0 15.0 15.0 15.0 15.0 15.0 15.0 15.0 15.0 15.0 15.0 15.0 15.0 5.8 10.4 15.0
15.0 15.0 15.0 15.0 15.0 15.0 15.0 15.0 15.0 15.0 15.0 15.0 15.0 15.0 15.0 15.0 15.0 15.0 15.0 15.0 15.0 15.0 15.0 15.0 15.0 15.0 15.0 15.0 15.0 15.0 15.0 15.0 15.0 15.0 15.0 10.1 0.5 1.8
15.0 15.0 15.0 15.0 15.0 15.0 15.0 15.0 15.0 15.0 15.0 15.0 15.0 15.0 15.0 15.0 15.0 15.0 15.0 15.0 15.0 15.0 15.0 15.0 15.0 15.0 15.0 15.0 15.0 15.0 15.0 15.0 15.0 15.0 15.0 11.6 0.4 14.9